This demonstration page uses our WeatherBlox Daily Observations layout. Learn more.

Left ArrowRight Arrow

34.16533, -84.80231

Hourly Observations for August 26, 2018

Temp ( °F °C ) Dew Point ( °F °C ) Humidity (%) Winds ( mph kmh ) Pressure ( in mb ) Visibility ( mi km ) Precip ( " mm )
12:53 am 00:53 Clear 69 20.6 68 20 96 96 Calm 30.19 1022 9 14 0.00 0.00
1:53 am 01:53 Clear 67 19.4 67 19.4 100 100 Calm 30.18 1022 8 13 0.00 0.00
2:53 am 02:53 Clear 66 18.9 66 18.9 100 100 Calm 30.18 1022 7 11 0.00 0.00
3:53 am 03:53 Clear 67 19.4 66 18.9 97 97 Calm 30.17 1022 8 13 0.00 0.00
4:53 am 04:53 Clear with Mist and Fog 64 17.8 64 17.8 100 100 Calm 30.18 1022 6 10 0.00 0.00
5:53 am 05:53 Clear with Mist and Fog 64 17.8 64 17.8 100 100 Calm 30.19 1022 6 10 0.00 0.00
6:53 am 06:53 Clear 65 18.3 65 18.3 100 100 Calm 30.21 1023 8 13 0.00 0.00
7:53 am 07:53 Sunny 68 20 67 19.4 96 96 Calm 30.23 1024 7 11 0.00 0.00
8:53 am 08:53 Sunny 72 22.2 68 20 87 87 E 3 6 30.24 1024 8 13 0.00 0.00
9:53 am 09:53 Sunny 77 25 69 20.6 77 77 E 3 6 30.25 1024 9 14 0.00 0.00
10:53 am 10:53 Sunny 81 27.2 71 21.7 72 72 Calm 30.24 1024 10 16 0.00 0.00
11:53 am 11:53 Mostly Cloudy 84 28.9 69 20.6 61 61 SE 5 7 30.24 1024 10 16 0.00 0.00
12:53 pm 12:53 Mostly Cloudy 84 28.9 67 19.4 57 57 Calm 30.22 1024 10 16 0.00 0.00
1:53 pm 13:53 Mostly Sunny 85 29.4 66 18.9 53 53 VRB 5 7 30.21 1023 10 16 0.00 0.00
2:53 pm 14:53 Sunny 88 31.1 66 18.9 48 48 VRB 5 7 30.18 1022 10 16 0.00 0.00
3:53 pm 15:53 Sunny 90 32.2 65 18.3 44 44 ENE 6 9 30.16 1021 10 16 0.00 0.00
4:53 pm 16:53 Sunny 89 31.7 66 18.9 47 47 VRB 6 9 30.14 1021 10 16 0.00 0.00
5:53 pm 17:53 Mostly Sunny 89 31.7 66 18.9 47 47 ESE 3 6 30.14 1021 10 16 0.00 0.00
6:53 pm 18:53 Sunny 87 30.6 67 19.4 51 51 SE 3 6 30.13 1020 10 16 0.00 0.00
7:53 pm 19:53 Sunny 80 26.7 73 22.8 79 79 Calm 30.13 1020 9 14 0.00 0.00
8:53 pm 20:53 Clear 73 22.8 71 21.7 94 94 Calm 30.13 1020 10 16 0.00 0.00
9:53 pm 21:53 Clear 72 22.2 70 21.1 94 94 Calm 30.14 1021 10 16 0.00 0.00
10:53 pm 22:53 Clear 72 22.2 71 21.7 97 97 Calm 30.15 1021 9 14 0.00 0.00
11:53 pm 23:53 Clear 70 21.1 70 21.1 100 100 Calm 30.16 1021 9 14 0.00 0.00

Powered by AerisWeather